Jordan, MT

9:31 PM MDT on September 30, 2016 (GMT -0600)
Jordan

Weather History for KJDN - January, 2014

Change the Weather History Date:

Friday, January 10, 2014

  Actual Average Record
Temperature  
Mean Temperature 29 °F 17 °F  
Max Temperature 40 °F 28 °F 58 °F (1941)
Min Temperature 18 °F 5 °F -42 °F (1909)
Degree Days  
Heating Degree Days 36 48  
Month to date heating degree days 458 487  
Since 1 July heating degree days 4045 3937  
Cooling Degree Days 0 0  
Month to date cooling degree days 0 0  
Year to date cooling degree days 0 0  
Moisture  
Dew Point 19 °F    
Average Humidity 66    
Maximum Humidity 78    
Minimum Humidity 54    
Precipitation  
Precipitation 0.00 in 0.01 in 0.36 in (1971)
Month to date precipitation 0.05 0.10  
Year to date precipitation 0.05 0.10  
Snow  
Snow 0.00 in - - ()
Month to date snowfall 0.0  
Since 1 July snowfall 0.0  
Snow Depth 0.00 in    
Sea Level Pressure  
Sea Level Pressure 29.64 in    
Wind  
Wind Speed 8 mph (WNW)    
Max Wind Speed 15 mph    
Max Gust Speed 18 mph    
T = Trace of Precipitation, MM = Missing Value Source: NWS Daily Summary

Daily Weather History Graph

Daily Weather History Graph

Search for Another Location

Airport or City:

Trip Planner

Search our weather history database for the weather conditions in past years. The results will help you decide how hot, cold, wet, or windy it might be!

Date:

Astronomy

Jan. 10, 2014 Rise Set
Actual Time 7:52 AM MST 4:38 PM MST
Civil Twilight 7:17 AM MST 5:13 PM MST
Nautical Twilight 6:39 AM MST 5:51 PM MST
Astronomical Twilight 6:02 AM MST 6:28 PM MST
Moon 12:49 PM MST (1/10) 2:56 AM MST (1/10)
Length of Visible Light 9h 55m
Length of Day
8h 45m
Waxing Gibbous, 75% of the Moon is Illuminated
Jan 10
Waxing Gibbous
Jan 15
Full
Jan 23
Last Quarter
Jan 30
New
Feb 6
First Quarter

Hourly Weather History & Observations

Time (MST) Temp. Windchill Dew Point Humidity Pressure Visibility Wind Dir Wind Speed Gust Speed Precip Events Conditions
12:48 AM 21.9 °F 11.7 °F 14.0 °F 72% 29.62 in - West 9.2 mph - N/A   Unknown
1:48 AM 25.0 °F 18.1 °F 16.0 °F 69% 29.62 in - West 5.8 mph - N/A   Unknown
2:48 AM 23.0 °F 14.7 °F 14.0 °F 68% 29.62 in - West 6.9 mph - N/A   Unknown
3:48 AM 25.0 °F 14.8 °F 15.1 °F 66% 29.61 in - West 10.4 mph - N/A   Unknown
4:48 AM 21.9 °F 13.4 °F 12.0 °F 66% 29.60 in - WNW 6.9 mph - N/A   Unknown
5:48 AM 21.0 °F 13.4 °F 12.0 °F 68% 29.60 in - WNW 5.8 mph - N/A   Unknown
6:48 AM 21.9 °F 15.7 °F 12.0 °F 66% 29.60 in - WNW 4.6 mph - N/A   Unknown
7:48 AM 27.0 °F 19.5 °F 16.0 °F 63% 29.60 in - West 6.9 mph - N/A   Unknown
8:48 AM 24.1 °F 16.0 °F 14.0 °F 65% 29.62 in - West 6.9 mph - N/A   Unknown
9:48 AM 30.0 °F 21.7 °F 18.0 °F 61% 29.62 in - West 9.2 mph - N/A   Unknown
10:48 AM 33.1 °F 26.1 °F 21.0 °F 61% 29.62 in - West 8.1 mph - N/A   Unknown
12:48 PM 39.0 °F 32.3 °F 25.0 °F 57% 29.57 in - West 10.4 mph - N/A   Unknown
1:48 PM 39.9 °F 32.1 °F 26.1 °F 58% 29.56 in - West 13.8 mph - N/A   Unknown
2:48 PM 39.0 °F 32.8 °F 26.1 °F 60% 29.60 in - West 9.2 mph - N/A   Unknown
3:48 PM 34.0 °F 28.0 °F 24.1 °F 67% 29.62 in - WNW 6.9 mph - N/A   Unknown
4:48 PM 28.9 °F 21.9 °F 19.9 °F 69% 29.65 in - West 6.9 mph - N/A   Unknown
5:48 PM 30.0 °F 24.1 °F 21.0 °F 69% 29.68 in - WNW 5.8 mph - N/A   Unknown
7:48 PM 32.0 °F - 24.1 °F 73% 29.73 in - Calm Calm - N/A   Unknown
8:48 PM 34.0 °F 26.6 °F 27.0 °F 75% 29.77 in - NW 9.2 mph - N/A   Unknown
9:48 PM - - - N/A% - - North - - N/A   Unknown
10:48 PM 32.0 °F 24.8 °F 24.1 °F 73% 29.79 in - WNW 8.1 mph - N/A   Unknown
11:48 PM 32.0 °F 23.0 °F 24.1 °F 73% 29.79 in - WNW 11.5 mph - N/A   Unknown